Hauptseite
METAR-TAF:

METAR-TAF

Flughäfen :

RAF Odiham

Odiham, England

Breite: 51-14N, Länge: 000-57W, Höhe: 123 m

Beobachtung

Neuester Wetterbericht von vor 1 Stunde und 15 Minuten, um 18:50 UTC
Wind 5 kt aus Nord/Nordwest
Temperatur 1°C
Luftfeuchtigkeit 93%
Luftdruck 1021 hPa
Sichtweite: 6000 m
trockener Dunst

METAR: EGVO 201850Z AUTO 34005KT 6000 HZ BKN027/// 01/M00 Q1021

Zeit: 20:05 (20:05 UTC)


TAF: fehlend

Wetterbeobachtungen und Prognosen von mehr als 4000 Flughäfen (METAR und TAF Bericht).

Die verfügbaren Stationen werden durch gelbe und rote Markierungen auf der Karte dargestellt.

Führen Sie die Maus auf sie, um den Namen der Station zu sehen.

Darauf klicken, um die Beobachtung von Wetterbeobachtungen und Prognosen zu sehen.

Um die Karte zu ändern : klicken Sie auf den grünen Tasten mit einem schwarzen Kreuz Zum Vergrößern, auf den grünen Button mit einem Gedankenstrich zu verkleinern, oder auf die grünen Pfeile für benachbarte Karten.


METAR-TAF: